Location: Newark
(59.4564°N, 26.6917°E)
Time: 19:44:28
(UTC+00:00)

Vanguard 3 - Pass Details

Date: 30 November 2019
Orbit: 508 x 3263 km, 33.3° (Epoch: 11 December)

Event Time Altitude Azimuth Distance (km) Brightness Sun altitude
Rises 14:10:55 0° 263° (W) 6,910 13.2 -5.6°
Reaches altitude 10° 14:17:33 10° 248° (WSW) 6,118 13.3 -6.3°
Maximum altitude 14:28:44 19° 213° (SSW) 5,439 12.3 -7.5°
Drops below altitude 10° 14:39:29 10° 178° (S) 5,830 11.9 -8.7°
Sets 14:45:37 0° 162° (SSE) 6,479 11.9 -9.4°
